Theta_e
311 311 317 321 325 326 326 327 327 328 328 326 326 325 325 326 327 328 327 325 323 322 321 321 318 317 316 317 318 317 316 315 316 317 315 316 315 313 314 314 312 310 310
308 310 310 316 322 324 325 326 326 328 328 328 328 328 327 327 328 327 327 327 325 323 322 321 320 319 317 317 318 318 315 317 316 312 312 309 308 309 313 311 313 312 310
305 306 307 309 318 321 323 324 325 327 329 329 328 327 325 324 323 324 325 326 326 324 323 323 322 321 320 318 318 318 317 315 314 315 310 304 302 304 307 307 309 310 308
309 308 306 306 309 318 322 324 325 325 329 329 327 326 325 324 326 327 326 326 325 324 323 323 323 322 321 320 319 319 318 316 314 311 316 312 308 305 303 307 307 307 308
309 308 307 308 307 312 316 322 324 325 326 328 329 327 325 326 327 327 325 325 326 325 323 323 322 322 322 321 321 319 318 318 317 315 309 313 311 311 311 306 306 307 306
302 304 304 305 306 306 309 314 318 322 325 325 327 327 326 326 325 324 324 325 325 325 325 324 323 322 322 322 321 321 320 319 319 318 315 312 309 311 310 308 308 308 309
299 300 301 301 303 304 306 309 314 317 320 324 325 326 327 327 326 324 323 324 324 324 325 325 323 323 322 322 322 321 320 319 319 318 317 317 315 311 312 310 309 309 310
299 300 301 301 301 303 303 304 308 310 316 318 322 325 327 327 327 326 326 325 325 326 326 326 325 324 324 323 322 322 321 321 319 319 318 318 318 316 316 314 311 308 307
298 298 299 301 301 301 302 303 303 305 309 312 318 320 324 325 327 327 327 326 326 326 326 326 325 325 324 323 323 322 321 321 320 319 318 318 319 319 319 318 316 313 307
297 298 299 300 301 301 301 302 303 302 304 307 311 315 319 323 325 327 326 326 326 325 325 325 325 324 324 323 322 322 322 321 321 320 319 319 320 320 319 319 317 315 313
297 299 300 301 301 301 301 301 301 301 302 303 306 310 313 317 322 324 326 326 326 326 324 324 324 324 323 323 322 322 322 321 320 321 320 319 320 319 318 317 316 315 314
297 301 301 300 298 298 300 300 300 300 302 302 304 306 310 313 315 319 323 325 325 324 324 325 324 323 323 323 321 321 321 321 319 320 318 318 318 317 318 316 314 314 312
299 299 298 296 295 298 298 299 300 300 300 301 303 305 308 311 313 315 318 319 322 323 323 324 324 324 323 322 322 321 321 320 320 319 317 318 316 314 314 312 312 309 301
298 296 294 294 295 296 297 299 300 301 300 299 300 302 304 307 311 314 316 318 319 320 321 322 324 323 323 322 322 321 321 319 318 318 317 316 315 314 311 308 307 302 299
294 294 294 295 296 297 298 299 299 300 300 300 298 300 302 304 307 309 312 313 313 318 319 320 321 322 321 320 319 318 318 317 316 314 314 314 308 301 305 305 302 299 294
294 294 294 294 294 294 296 297 298 298 298 298 297 298 298 298 300 303 304 303 304 310 313 312 313 314 315 307 305 312 315 313 313 311 305 302 292 296 297 298 298 300 296
291 291 292 292 292 293 294 294 295 295 295 294 294 294 292 292 293 293 295 297 300 302 305 307 307 308 312 301 302 300 314 311 309 305 300 295 294 293 295 295 295 295 296
289 290 290 289 290 290 292 292 291 291 292 291 292 291 292 291 291 290 291 295 298 298 301 301 303 304 301 298 298 295 306 303 302 300 299 297 292 292 292 291 289 289 290
287 288 287 287 286 288 290 288 287 288 288 289 289 290 290 290 290 290 290 291 294 296 297 294 296 295 297 295 296 296 294 294 294 296 296 296 292 291 292 289 287 286 286
285 283 284 284 285 286 285 284 284 284 285 287 287 288 289 289 289 289 290 291 291 292 294 293 292 292 294 293 294 295 292 290 290 289 290 288 292 291 292 289 287 286 285
281 281 280 281 283 282 282 281 282 281 284 285 285 284 286 287 288 288 289 289 289 290 291 291 291 290 290 291 294 294 292 293 289 289 287 288 291 292 292 291 288 288 286
277 278 278 278 278 279 279 278 279 281 282 279 278 280 284 286 287 287 287 288 288 288 288 288 290 288 288 289 293 294 294 292 290 288 287 287 291 292 292 289 290 289 286
275 276 275 274 276 276 276 277 278 278 275 274 275 279 283 285 286 287 287 287 288 288 288 288 289 291 287 288 291 293 292 291 288 287 287 289 291 291 290 289 290 286 285
272 272 272 271 271 273 275 274 274 273 271 271 275 279 279 281 285 286 287 287 287 288 288 288 288 289 290 288 288 289 290 288 287 287 287 289 289 289 287 287 287 285 285
269 269 269 269 269 270 270 270 270 269 269 269 270 273 277 280 281 284 286 287 288 289 288 288 289 288 289 288 290 289 288 288 287 286 286 286 285 285 285 285 284 284 284
267 266 266 266 266 267 267 266 267 266 265 266 268 268 269 272 276 280 284 289 289 290 291 291 291 290 291 291 290 290 290 289 288 286 285 284 283 283 283 282 282 282 282
Wind_Speed
9 8 13 13 15 14 15 16 14 13 11 9 10 8 11 8 7 9 11 12 10 12 12 9 7 7 8 9 8 5 7 5 4 3 2 4 5 6 7 7 6 7 8
9 10 8 10 15 19 19 16 16 16 15 12 11 10 8 8 9 7 11 13 12 13 12 12 10 9 7 7 10 8 4 5 5 4 2 3 4 4 7 5 7 9 5
13 10 11 13 14 16 18 17 18 17 15 16 8 7 3 2 5 8 9 11 14 14 14 14 11 10 9 9 10 10 11 8 5 7 5 2 5 1 1 5 5 7 4
18 15 9 7 9 15 16 17 16 15 16 16 13 15 13 13 13 12 10 10 12 14 16 15 14 12 10 12 11 9 10 7 9 2 7 6 5 4 4 2 4 5 6
16 13 10 9 7 10 11 14 15 14 15 14 17 13 15 12 10 10 12 13 12 15 15 15 14 14 12 14 13 12 13 10 9 8 3 7 4 5 7 10 4 3 4
8 7 5 5 6 6 2 5 7 12 13 13 18 20 19 16 12 11 12 11 10 11 15 15 15 15 14 14 13 14 14 13 12 9 9 7 5 10 8 8 10 8 5
8 8 9 8 7 6 4 3 6 8 8 13 15 17 19 17 17 15 12 12 11 10 15 16 15 14 16 16 14 13 14 13 13 14 11 10 10 4 7 8 7 8 5
8 8 7 6 7 8 8 6 5 8 7 8 12 14 15 12 12 14 12 11 12 12 13 15 17 18 17 16 14 12 12 13 13 16 13 10 10 9 10 10 7 6 6
7 5 4 3 4 5 7 6 8 8 8 8 8 9 11 13 13 16 13 11 13 12 13 14 17 18 16 16 16 12 15 14 14 14 13 12 10 9 11 10 10 10 7
6 3 4 4 4 5 7 7 6 6 7 8 7 7 8 11 13 13 15 14 14 14 13 13 16 17 17 16 16 14 15 14 13 11 14 14 12 12 10 10 10 9 11
4 4 3 5 4 3 4 7 7 7 7 6 6 7 7 8 9 13 14 15 14 15 13 14 15 16 17 17 16 17 16 16 15 15 15 17 16 11 9 8 9 9 9
1 5 5 6 6 7 7 6 7 7 7 7 7 7 7 7 7 10 13 13 14 12 15 16 16 17 18 18 18 19 17 17 17 17 15 17 11 14 13 9 11 10 7
3 4 6 6 7 8 7 8 8 8 8 7 7 7 7 7 9 9 9 8 11 12 12 14 16 17 16 16 16 17 16 16 17 15 15 16 14 13 10 10 9 7 4
3 3 5 8 8 8 8 10 11 9 9 9 8 8 8 8 9 10 10 11 11 11 12 14 15 15 16 16 15 16 16 14 14 15 15 16 15 15 12 10 10 7 6
10 11 11 10 11 13 12 12 12 11 12 13 10 10 9 9 9 10 10 9 8 12 11 12 12 13 13 11 14 13 14 13 14 14 14 14 12 13 11 8 8 8 5
13 13 13 13 13 13 14 14 14 14 14 14 14 13 11 11 10 10 11 8 8 10 9 9 9 10 9 12 15 14 12 14 15 13 8 6 7 9 13 12 11 12 11
12 12 12 12 13 14 14 14 15 15 14 14 14 11 11 12 13 9 10 13 12 9 9 10 7 11 11 12 16 17 12 10 10 8 7 6 4 6 7 8 9 9 10
12 13 13 14 14 14 13 14 14 14 13 13 13 14 14 13 14 10 10 12 11 13 12 10 10 9 6 9 11 12 10 8 9 10 11 11 10 9 9 9 7 6 5
10 10 11 14 17 15 15 16 15 14 14 14 13 15 16 17 15 15 14 11 9 12 14 7 9 9 9 12 13 10 6 6 7 7 8 9 9 13 14 10 10 7 4
10 12 13 14 13 15 18 17 15 15 16 16 17 16 16 16 17 16 15 12 8 11 11 11 10 9 11 13 15 14 6 7 5 5 6 10 12 18 19 12 12 11 9
15 15 14 14 14 17 16 18 16 16 16 17 18 19 18 17 16 16 14 12 11 10 11 15 9 9 9 9 16 17 9 8 6 7 6 5 15 20 20 16 12 11 13
18 16 16 15 15 15 15 19 17 17 17 20 21 20 18 15 13 15 15 14 12 11 11 10 11 7 7 10 16 18 17 11 9 9 5 6 17 19 19 14 16 20 16
15 15 16 19 14 15 15 18 19 18 22 21 21 20 21 19 16 17 16 13 12 10 10 9 9 11 6 7 16 18 17 14 7 5 9 14 17 19 15 16 20 19 9
15 15 17 19 20 15 15 17 18 20 20 21 20 18 19 19 18 14 12 12 11 11 10 10 10 10 10 8 7 9 11 13 8 12 10 12 12 12 10 11 14 8 9
15 15 16 17 20 20 18 17 18 18 19 19 18 17 14 16 17 15 14 12 14 12 12 12 10 9 11 10 14 13 10 10 11 11 9 9 8 8 8 8 9 7 7
16 15 16 17 18 18 18 18 16 16 17 18 15 14 14 14 13 14 15 19 23 25 26 27 21 11 18 13 20 22 21 22 26 9 11 12 13 12 11 10 10 8 9
Wind_Direction
251 216 213 197 195 191 193 203 201 197 191 196 203 210 213 207 208 206 203 197 199 201 207 212 208 199 203 206 202 190 198 215 212 148 261 253 236 233 227 228 229 231 228
253 254 211 196 196 195 199 198 205 201 194 195 206 212 211 218 214 208 202 200 198 200 208 213 212 210 210 205 207 203 201 211 189 181 182 264 292 262 234 210 228 238 225
240 236 233 208 209 204 202 199 200 201 199 202 196 201 201 206 205 219 212 205 199 199 205 209 211 209 209 214 211 207 206 217 212 201 169 202 225 312 311 231 227 237 226
240 238 232 236 209 221 207 204 199 193 199 193 196 201 206 213 220 224 223 216 204 205 203 209 206 207 210 216 214 207 208 191 210 219 227 212 157 194 308 288 240 215 226
236 232 225 236 235 213 203 210 206 200 200 195 201 203 214 219 217 217 215 216 216 211 207 206 206 210 211 217 216 214 210 207 214 211 164 227 229 217 242 275 247 282 232
66 73 56 34 32 16 209 236 224 213 207 199 205 207 212 217 217 214 214 213 216 216 215 207 210 212 215 216 216 216 214 214 216 214 210 197 189 214 212 231 249 248 238
74 59 37 22 20 22 16 321 224 237 225 214 215 218 221 218 221 217 217 215 219 217 218 211 211 216 217 218 218 217 220 214 216 214 215 217 222 178 206 224 234 233 227
66 50 38 23 9 358 353 345 297 260 235 222 226 226 224 225 224 223 222 220 222 221 217 213 216 216 216 217 218 220 221 219 221 221 217 218 222 213 216 224 223 248 233
71 68 28 12 334 325 320 327 329 311 291 256 236 226 227 227 228 230 226 226 225 227 222 213 213 218 215 214 214 219 223 218 220 221 219 217 220 215 222 222 222 234 252
71 337 302 305 327 310 296 304 296 289 287 288 271 254 236 230 230 229 227 225 226 223 221 212 211 214 214 212 211 218 224 220 220 219 217 218 223 224 219 222 224 222 238
165 270 296 310 326 306 301 291 292 297 301 300 288 280 263 245 231 229 227 224 226 224 216 212 211 212 211 210 210 217 221 220 221 219 218 221 220 220 217 218 224 223 225
181 289 315 333 339 345 346 333 306 298 287 283 287 282 279 272 253 245 241 232 227 223 221 220 215 213 211 209 208 214 216 219 218 220 216 222 217 220 221 214 217 222 212
210 313 344 342 345 351 350 341 331 314 301 298 287 285 281 280 275 262 248 232 230 231 225 225 224 220 215 213 215 218 219 221 222 218 216 222 218 219 219 212 218 210 186
276 300 360 2 10 353 350 350 338 329 321 313 299 289 285 282 280 277 266 254 243 237 229 225 225 221 215 215 214 215 219 220 220 217 214 217 216 219 211 206 209 195 187
10 29 37 24 8 1 353 349 342 340 342 338 318 297 293 291 289 285 277 269 257 249 242 236 230 223 216 212 209 210 213 215 219 218 217 218 212 207 199 195 200 178 162
33 24 18 14 4 353 347 343 345 347 339 334 327 319 315 304 293 287 286 282 272 263 250 236 227 222 221 214 205 205 213 216 220 220 211 193 185 198 194 191 181 181 177
19 14 8 356 348 346 341 342 336 332 331 331 328 323 318 313 307 293 298 288 279 276 261 250 230 238 238 205 212 208 222 218 218 206 185 186 182 175 163 151 160 164 168
9 357 352 343 342 334 336 334 332 326 324 322 326 330 330 322 314 298 280 280 277 272 263 254 242 238 227 202 202 198 216 201 195 192 191 193 182 182 164 151 145 140 143
348 354 338 334 324 327 335 333 327 326 326 327 327 326 324 320 316 306 295 277 272 274 265 243 236 230 237 206 203 188 197 205 201 192 185 184 178 170 164 155 154 140 126
345 335 333 324 322 334 334 328 326 329 326 327 323 321 314 309 308 304 298 285 261 266 272 257 237 234 236 203 200 191 186 196 186 183 183 183 177 168 172 166 161 159 158
335 334 330 325 331 332 326 322 323 323 318 317 320 315 308 303 301 300 298 286 271 268 262 263 247 226 218 211 202 195 192 198 183 190 186 185 177 176 177 169 173 173 155
333 334 326 327 326 324 328 316 315 317 325 322 312 310 306 303 301 300 302 292 276 266 265 260 260 237 214 206 209 204 204 185 186 193 179 178 178 178 174 165 170 159 151
324 330 325 314 320 327 317 313 318 330 320 314 309 305 305 306 302 300 297 294 280 265 260 251 252 255 222 221 207 199 196 197 189 157 173 172 175 177 173 173 170 157 156
323 323 320 316 313 318 321 312 320 316 311 305 303 309 309 301 300 295 289 282 275 268 264 253 248 247 241 221 203 200 194 185 168 156 165 169 173 170 162 167 160 165 165
325 322 317 314 313 320 318 320 314 313 310 310 306 300 300 305 303 291 285 271 264 258 268 261 257 247 242 227 211 198 190 182 171 144 151 163 164 163 169 172 163 164 159
322 323 320 315 313 312 314 311 313 315 308 304 307 303 300 297 292 288 286 265 259 257 253 255 252 254 250 220 203 201 189 178 163 164 174 176 172 172 173 173 161 161 166